[Date Prev][Date Next][Thread Prev][Thread Next] - [Date Index][Thread Index][Author Index]

2 Line ISS Keps 12-24



ISS
1 25544U 98067A   05358.16755475  .00015162  00000-0  11123-3 0    99
2 25544 051.6453 007.1955 0010859 074.7434 051.9835 15.73320067405582
----
Via the sarex mailing list at AMSAT.ORG courtesy of AMSAT-NA.
To unsubscribe, send "unsubscribe sarex" to Majordomo@amsat.org



AMSAT Top AMSAT Home